SCP
1 1 1 1 1 1 0 0 0 0 0 0 0 0 0 0 0 0 0 0 0 0 1 1 1 1 1 1 1 1 1 1 1 1 1 1 1 1 1 1 1 1 1 1 1 1 1 1 1
1 1 1 1 1 0 0 0 0 0 0 0 0 0 0 0 0 0 0 0 0 0 0 1 1 1 1 1 1 1 1 1 1 1 1 1 1 1 1 1 1 1 1 1 1 1 1 1 1
1 1 1 1 1 0 0 0 0 0 1 0 0 0 0 0 0 0 0 0 0 0 0 0 1 1 1 1 1 1 1 1 1 1 1 1 1 1 2 2 2 1 1 1 1 1 1 1 1
2 2 2 1 0 0 0 0 0 1 1 1 1 1 0 0 0 0 0 0 0 0 0 0 1 1 1 1 1 1 1 1 1 1 1 1 1 1 1 1 1 1 1 1 2 2 2 2 2
2 2 2 1 0 0 0 0 0 1 1 1 1 1 1 0 0 0 0 0 0 0 0 0 1 1 1 1 1 1 1 1 1 1 1 1 1 1 1 1 1 1 2 2 2 2 3 3 3
3 4 3 1 0 0 0 0 0 1 1 1 1 1 1 0 0 0 0 0 0 0 0 0 1 1 1 1 1 1 1 1 1 1 1 1 1 1 1 1 2 2 2 2 2 2 3 3 3
4 4 3 1 0 0 0 0 0 0 1 1 1 1 0 0 0 0 0 0 0 0 0 0 0 1 1 1 1 1 1 1 1 2 2 1 1 1 1 1 2 2 2 2 2 2 2 2 2
3 3 2 1 0 0 0 0 0 0 1 1 1 1 0 0 0 1 1 1 0 0 0 0 0 0 1 1 1 1 1 1 2 3 4 2 2 1 1 1 1 2 2 1 1 1 1 1 1
2 2 1 0 0 0 0 0 0 1 1 1 1 1 1 1 1 1 1 1 1 1 0 0 0 0 0 1 1 1 1 1 2 3 4 3 2 1 1 1 1 1 1 1 1 1 1 1 2
2 1 1 0 0 0 0 0 1 1 2 1 1 1 1 1 1 1 1 1 1 1 1 0 0 0 0 0 1 1 1 1 1 2 2 2 1 1 1 1 1 1 1 1 1 2 2 2 2
2 2 1 0 0 0 0 0 1 1 1 1 1 1 1 1 1 1 1 1 2 1 1 1 1 0 0 0 0 0 0 0 1 1 1 1 1 1 1 1 1 1 1 1 1 1 1 1 1
3 2 1 1 0 0 0 0 1 1 1 2 1 1 1 1 1 1 1 2 2 1 1 1 1 1 0 0 0 0 0 0 0 0 0 0 0 1 1 1 1 1 1 1 1 1 1 1 1
2 1 1 0 0 0 0 0 1 1 2 2 2 1 1 1 1 2 2 2 2 1 1 1 1 1 1 0 0 0 0 0 0 0 0 0 0 0 1 1 1 1 1 1 1 1 1 1 1
1 0 0 0 1 1 1 1 1 2 2 2 2 1 1 1 2 2 2 2 1 1 1 1 1 1 1 1 0 0 0 1 1 1 0 0 0 0 1 1 1 1 1 1 1 1 1 1 1
0 0 0 0 0 1 1 1 1 1 2 3 2 2 2 1 1 1 2 2 2 1 1 1 1 1 1 1 1 1 1 1 1 1 0 0 0 0 1 1 1 1 1 1 1 1 1 1 1
0 0 0 0 0 0 1 1 1 1 2 2 2 2 2 1 1 1 2 2 2 2 1 1 1 2 2 1 1 1 1 1 1 1 0 0 0 0 1 1 1 1 1 1 1 1 1 1 1
0 0 0 0 0 0 0 1 1 1 1 2 2 2 2 1 1 1 2 2 2 3 2 2 2 2 2 2 1 1 1 1 1 1 1 1 1 1 1 1 1 1 1 1 1 1 1 1 1
0 0 0 0 0 0 0 1 1 1 1 2 2 2 2 1 1 2 2 3 3 4 3 2 2 1 1 1 1 1 1 1 1 1 1 1 1 1 1 1 1 1 2 2 2 2 2 2 2
0 0 0 0 0 0 0 0 1 1 1 1 2 2 1 1 2 3 3 4 5 5 4 2 2 1 1 1 1 1 1 1 1 1 1 1 1 1 1 1 1 1 2 2 2 2 2 2 2
0 0 0 0 0 0 0 0 1 1 1 1 1 1 1 1 2 4 5 5 5 4 3 2 2 2 1 1 1 1 1 1 1 1 1 1 2 1 1 1 2 2 2 2 2 2 2 2 2
0 0 0 0 0 0 0 0 1 1 1 1 1 1 1 2 3 5 6 5 5 3 2 2 2 2 2 2 2 2 2 1 1 1 2 2 2 2 2 2 2 2 2 2 2 2 2 2 2
0 0 0 0 0 0 0 0 0 1 1 1 1 1 2 2 3 4 5 4 4 3 3 3 3 3 3 3 3 2 2 2 2 2 2 2 2 3 3 2 2 2 3 3 2 2 3 3 3
0 0 0 0 0 0 0 0 0 1 1 1 2 2 2 3 4 4 4 3 3 3 3 3 3 3 3 4 5 4 2 2 2 2 2 2 2 3 4 3 3 3 3 3 3 4 4 4 4
0 0 0 0 0 0 0 0 0 1 2 3 3 3 3 4 4 3 3 3 2 2 3 3 3 3 4 6 7 4 2 2 2 2 2 2 2 3 4 4 4 4 4 5 5 5 5 5 6
0 0 0 0 0 0 0 0 1 2 3 4 4 4 4 4 4 3 3 3 3 3 3 3 3 4 5 7 6 4 3 3 3 3 3 3 3 3 4 4 4 5 5 6 6 6 5 5 6
0 0 0 0 0 0 0 1 1 2 4 4 4 4 4 4 4 4 4 4 3 3 3 3 3 4 5 5 5 4 4 4 4 4 3 3 4 4 4 4 4 4 5 5 5 5 4 4 4
0 0 0 0 0 0 0 1 2 2 3 3 4 4 5 5 5 5 5 4 3 3 3 3 3 3 4 4 4 4 4 5 4 4 3 3 4 4 4 4 3 3 4 4 4 3 3 3 3
0 0 0 0 0 0 0 1 1 2 3 3 4 5 6 6 6 5 4 3 3 3 3 3 3 3 3 3 4 4 4 4 4 3 3 2 2 3 3 3 3 3 3 2 2 3 3 3 3
0 0 0 0 0 0 0 1 1 2 3 3 4 4 5 5 5 4 4 4 4 4 4 3 3 3 3 3 3 3 3 3 3 2 2 2 2 2 2 2 2 2 2 2 2 3 3 4 3
0 0 0 0 0 0 0 0 1 2 3 3 3 4 4 4 4 4 4 4 5 5 4 4 3 3 3 3 3 3 3 2 2 2 1 1 2 2 2 1 2 2 2 2 2 3 4 4 4
Wind_Speed
8 5 2 0 2 4 4 3 5 5 5 7 9 10 8 7 5 6 2 7 7 6 4 7 9 9 9 8 8 9 9 10 10 11 11 10 11 11 11 11 11 11 12 11 11 12 11 11 12
6 4 1 1 3 4 3 3 6 7 8 9 9 10 8 6 6 8 5 7 8 6 4 6 10 9 9 8 8 8 9 9 9 10 10 10 10 10 10 10 10 10 11 10 11 11 11 10 11
6 2 0 2 2 3 3 4 7 9 8 6 6 6 6 5 6 5 6 9 7 5 4 6 10 9 9 8 8 8 8 9 9 9 9 9 9 9 10 10 10 10 10 10 10 10 10 10 10
3 1 1 2 2 2 5 5 8 9 8 7 7 7 5 4 4 7 10 10 8 5 4 6 9 9 8 8 8 8 8 8 8 8 8 9 9 9 9 9 9 10 10 10 9 10 9 9 9
1 1 2 2 3 4 5 7 9 8 5 8 9 7 5 4 9 11 11 10 8 5 3 5 9 8 7 7 7 7 7 7 7 8 8 8 8 9 8 9 8 9 9 9 9 9 9 9 9
1 1 3 2 5 5 5 8 10 11 10 10 9 7 4 5 8 9 10 8 7 7 4 4 7 8 7 7 7 6 6 6 7 8 8 8 8 8 8 8 8 8 9 9 9 8 8 9 9
2 2 3 4 5 5 6 7 8 10 9 6 7 6 4 4 6 7 8 7 6 6 5 3 3 4 6 7 7 6 6 5 7 9 8 8 8 7 7 7 8 8 8 9 8 8 8 8 8
4 2 2 3 5 5 6 7 7 9 8 8 6 7 5 5 7 7 7 6 5 5 4 3 2 2 2 3 6 5 6 6 8 9 8 7 7 7 7 6 7 8 8 8 8 8 8 8 8
3 3 2 4 6 5 7 9 6 7 9 7 6 7 8 9 8 7 6 4 4 4 2 3 2 2 2 3 4 4 5 5 6 6 7 5 3 3 3 5 7 7 7 7 8 8 8 8 7
4 4 5 5 7 8 8 9 7 7 10 8 9 10 11 9 8 7 6 5 4 3 2 2 2 2 2 3 2 1 2 2 2 2 3 2 1 2 3 5 6 6 5 5 7 7 8 6 3
5 5 4 4 7 9 8 7 5 10 7 10 13 13 11 9 7 6 5 5 4 4 3 2 3 2 2 2 2 1 1 1 1 2 2 1 1 1 2 2 2 2 3 2 3 4 3 3 3
3 3 4 5 7 8 8 7 6 8 9 13 14 13 11 10 7 7 6 4 4 4 3 3 3 3 3 2 2 2 2 1 1 2 2 2 1 1 1 1 1 1 1 2 2 2 3 3 3
4 2 4 7 8 8 9 9 9 9 13 13 14 12 11 10 7 6 6 5 5 4 3 3 3 3 2 2 2 2 2 2 2 1 2 2 2 2 2 2 2 2 2 2 3 3 3 3 3
2 2 3 6 7 8 11 8 8 10 14 13 13 10 10 9 8 6 5 5 4 4 3 3 4 3 3 2 2 2 2 2 2 1 2 3 3 2 2 2 2 2 2 2 3 3 3 2 2
3 4 2 3 5 6 10 6 7 12 13 12 12 10 9 8 8 8 7 6 5 5 4 4 4 3 3 3 3 3 2 2 2 2 2 2 2 3 3 3 2 2 2 3 3 3 2 2 2
4 4 1 3 4 5 8 6 7 11 13 11 11 10 9 7 8 8 7 6 5 5 4 4 4 4 3 3 3 2 2 2 1 1 2 2 2 3 3 3 2 2 2 3 3 2 2 2 2
4 1 2 4 4 5 6 6 9 10 12 11 10 10 9 7 7 7 8 7 6 5 5 4 4 4 3 3 2 2 2 2 1 1 1 2 2 3 3 3 2 2 3 2 3 2 2 2 2
3 2 2 3 3 5 4 6 11 11 12 11 11 10 9 9 8 8 8 7 6 5 5 5 4 3 3 2 2 2 2 1 1 1 1 2 2 3 3 3 2 3 3 2 2 2 2 2 2
4 2 3 4 2 3 4 8 11 10 10 10 9 9 9 9 8 8 8 8 7 5 5 4 4 3 3 2 1 1 1 1 1 1 2 2 2 3 3 3 2 2 2 3 3 2 2 1 2
3 2 2 2 1 3 4 5 8 10 13 13 13 11 10 8 7 8 8 8 7 7 6 5 4 4 3 2 2 2 2 2 1 1 1 2 2 3 3 3 3 2 2 2 2 2 2 1 2
2 5 3 3 1 3 5 2 4 5 6 8 10 10 11 12 12 10 9 8 8 7 7 6 5 4 3 3 2 2 2 2 1 1 0 1 2 2 3 3 3 3 3 3 3 3 3 2 2
4 6 5 4 3 1 3 2 5 6 5 8 9 9 10 11 11 10 10 9 9 8 7 6 5 5 4 4 4 4 3 2 2 1 1 1 1 2 2 3 3 3 3 3 3 3 3 3 2
5 3 4 3 3 2 1 4 5 4 6 9 10 11 11 12 13 12 12 11 10 9 8 6 6 5 4 4 4 4 2 2 1 1 1 1 0 1 2 2 2 2 2 3 3 3 3 3 3
4 6 6 6 5 2 3 4 5 6 10 9 9 11 11 12 12 11 10 9 8 7 7 7 6 5 4 4 4 4 4 3 2 1 1 1 0 1 1 1 2 2 2 2 3 3 3 3 3
5 7 5 6 5 4 3 2 7 8 8 10 11 11 11 11 11 10 10 9 9 9 8 7 7 6 5 5 4 5 5 4 4 3 2 1 1 1 1 1 1 2 2 2 2 2 2 3 2
2 9 7 4 3 4 3 2 6 4 4 6 8 9 9 10 10 11 11 11 10 10 9 8 8 6 5 5 5 4 4 3 2 3 3 2 2 2 2 2 2 2 2 2 2 2 2 2 2
3 3 8 7 1 1 3 3 5 3 4 5 7 8 7 8 9 9 9 10 10 10 9 9 9 6 6 6 5 4 3 3 3 3 2 2 2 2 1 1 1 1 1 2 2 1 2 2 2
6 7 6 6 4 1 3 2 4 3 3 4 6 7 7 6 7 8 8 9 9 8 8 8 8 7 6 6 5 4 4 4 3 3 3 2 2 2 2 1 1 1 1 1 1 1 1 1 1
1 2 5 5 6 6 3 6 7 9 7 6 6 7 8 8 8 8 7 7 7 7 7 6 7 6 5 5 4 4 4 3 3 3 3 3 2 2 2 2 2 1 1 1 1 2 1 2 2
5 5 7 5 4 5 5 7 5 7 7 7 6 6 7 7 7 7 7 8 7 7 7 7 6 6 6 5 4 4 3 3 3 3 3 3 2 2 2 2 2 2 2 2 2 2 2 2 2
Wind_Direction
160 156 146 99 43 49 72 84 98 87 69 62 74 82 81 64 91 124 161 141 143 144 150 136 126 120 116 113 112 112 111 112 114 116 119 122 127 133 137 139 142 145 146 149 151 153 155 156 157
156 166 159 35 72 76 60 86 90 99 120 113 87 84 78 72 86 112 125 146 140 138 143 136 131 126 121 118 117 114 117 119 118 120 121 124 127 132 137 140 144 148 151 154 156 156 158 161 163
162 190 98 48 77 126 119 105 104 104 107 99 87 64 69 93 104 124 147 146 132 130 138 140 136 132 126 122 122 121 122 124 123 124 128 131 132 135 142 146 149 153 158 159 160 161 162 164 164
149 155 28 69 91 120 129 127 117 106 82 73 90 68 59 73 104 128 138 138 129 134 143 145 134 134 133 130 128 129 130 131 131 132 133 136 138 141 144 150 155 159 162 164 163 164 165 164 162
93 97 55 65 95 103 121 120 112 100 90 85 89 87 71 66 105 121 134 138 135 139 149 151 140 138 139 139 138 138 136 138 139 141 143 142 143 146 147 150 155 161 164 167 167 167 167 164 164
97 87 87 100 106 101 112 115 107 102 109 104 97 94 88 110 116 128 138 140 140 144 150 152 149 146 148 147 146 146 146 146 151 151 150 150 147 146 150 152 155 160 163 165 168 170 171 171 171
152 122 148 141 117 114 121 115 111 117 119 122 119 100 115 124 131 130 131 135 138 145 145 151 160 153 156 159 155 148 147 143 146 150 151 152 151 152 157 159 159 160 162 167 171 176 177 173 173
172 114 106 123 121 121 122 107 113 121 115 123 116 120 147 163 141 127 121 121 128 135 141 155 162 167 172 162 159 153 140 130 135 141 145 151 159 163 167 167 164 162 162 167 172 178 181 173 172
143 88 146 165 142 141 130 112 107 99 106 104 99 120 143 143 127 114 110 105 114 128 144 152 159 179 186 166 152 153 145 137 132 134 142 148 156 163 168 169 164 164 166 168 170 177 177 169 168
138 141 191 176 149 138 132 128 131 108 103 99 102 112 126 131 127 123 127 128 130 142 153 151 155 157 160 146 127 125 130 125 125 129 142 150 155 163 154 162 166 164 165 171 170 173 170 162 160
153 163 166 145 142 132 129 131 124 123 123 140 139 140 139 132 130 130 132 139 149 155 147 142 151 149 139 129 127 132 133 118 119 135 143 134 123 129 127 132 155 151 156 155 154 164 153 153 154
119 158 149 142 138 132 136 130 116 128 145 148 144 144 140 139 141 142 141 139 140 131 133 128 125 126 130 129 130 138 133 120 126 141 141 127 115 110 114 118 124 124 126 122 118 127 134 139 149
104 121 125 136 136 133 122 120 119 124 135 140 139 140 143 146 145 149 148 141 135 129 124 122 109 117 120 119 129 125 127 122 126 135 135 130 127 127 124 123 123 121 127 131 123 126 133 139 143
160 116 119 135 136 132 121 122 115 138 140 142 144 147 151 151 149 147 143 140 143 143 135 126 107 114 112 115 118 124 132 134 123 121 124 127 130 127 125 123 124 128 133 135 131 133 130 130 131
84 73 47 139 136 134 114 107 140 152 144 145 150 151 151 154 153 155 159 157 154 150 143 140 128 115 106 107 118 118 125 127 120 116 114 115 129 134 133 128 126 131 130 126 122 118 117 123 127
47 59 25 254 154 153 120 150 167 155 147 150 154 155 154 158 161 162 158 153 148 139 141 148 136 124 121 116 112 110 108 111 113 112 114 125 138 143 140 137 140 135 125 125 124 123 121 124 133
21 98 231 262 200 155 131 160 170 162 153 155 158 160 160 160 163 163 160 155 151 146 142 137 128 131 133 125 114 111 109 109 116 111 116 132 141 138 135 141 147 133 124 128 138 132 142 140 150
236 224 228 222 224 140 144 158 163 167 161 162 165 165 165 168 175 168 161 156 150 144 139 138 128 132 130 113 100 92 92 92 88 104 119 125 127 132 131 128 135 135 131 132 135 142 145 154 165
177 191 237 230 199 132 163 154 167 169 166 166 170 171 172 176 174 164 159 155 148 146 142 145 140 146 130 113 114 114 123 124 109 128 131 129 125 125 132 132 136 135 144 158 154 147 147 165 150
162 190 242 332 47 114 135 153 172 174 180 178 178 179 177 171 165 166 162 159 160 162 159 156 153 148 148 150 148 139 134 141 151 163 110 115 123 138 145 147 151 150 149 153 156 149 156 192 166
206 187 191 154 49 53 98 86 175 191 181 181 183 181 177 176 173 172 168 169 167 169 169 164 161 153 154 141 116 97 76 55 51 65 87 148 142 143 153 162 163 162 163 175 184 176 172 192 220
236 218 172 156 123 250 120 171 242 196 188 188 187 185 185 181 175 175 173 174 176 177 169 162 161 158 158 147 138 138 137 150 186 183 179 166 140 142 155 156 167 170 173 181 197 190 186 178 202
213 183 138 158 128 76 65 129 260 189 192 204 195 190 188 183 177 179 180 179 177 172 168 165 160 163 164 155 152 145 141 169 155 131 135 147 157 160 160 161 153 163 178 189 198 192 196 194 196
141 67 41 42 66 48 245 149 244 213 200 196 197 193 189 184 180 180 176 167 168 168 167 164 163 173 173 164 154 152 162 171 153 155 168 204 277 280 237 181 178 185 189 196 198 198 202 205 204
84 87 40 8 15 266 268 161 240 226 198 187 190 188 183 176 174 172 168 169 171 172 172 170 170 178 180 171 171 174 178 174 174 177 175 174 199 255 252 219 206 205 211 210 197 196 215 213 205
184 131 145 174 224 282 323 235 264 240 194 172 167 168 165 167 171 171 173 173 174 174 173 172 175 179 179 178 184 182 178 177 182 180 176 186 204 221 234 219 212 215 211 211 197 201 219 215 215
143 149 156 135 154 338 293 301 327 24 80 118 128 131 149 161 167 171 171 172 175 176 177 176 174 175 177 180 178 175 170 170 176 177 175 190 209 209 220 225 211 207 207 204 189 203 221 216 225
152 154 105 115 140 242 289 250 225 221 184 140 142 149 155 157 159 163 166 173 176 175 172 167 168 174 179 180 182 179 180 177 174 164 170 182 202 202 195 217 227 240 239 217 191 207 221 198 229
75 100 114 122 147 154 212 259 216 189 183 171 170 163 162 159 166 166 166 164 159 155 161 163 166 164 170 176 179 179 177 178 174 179 191 196 203 198 189 201 213 225 244 240 209 227 208 214 237
168 177 146 153 201 167 169 258 235 175 166 167 170 162 159 157 161 164 160 151 154 159 163 165 167 167 176 176 175 185 182 173 181 196 206 201 203 206 208 209 214 217 221 215 214 237 236 226 235